Weather History for Dubois Muni, Dubois, WY, WY

Change the Weather History Date:

Sunday, March 16, 2014

  Actual Average (KJAC) Record (KJAC)
Temperature  
Mean Temperature 37 °F -  
Max Temperature 46 °F 39 °F 55 °F (1992)
Min Temperature 28 °F 12 °F -16 °F (1960)
Degree Days  
Heating Degree Days 28    
Moisture  
Dew Point 15 °F    
Average Humidity 41    
Maximum Humidity 56    
Minimum Humidity 25    
Precipitation  
Precipitation 0.00 in - - ()
Sea Level Pressure  
Sea Level Pressure 30.16 in    
Wind  
Wind Speed 21 mph (NW)    
Max Wind Speed 38 mph    
Max Gust Speed 47 mph    
Visibility 10 miles    
Events      
Averages and records for this station are not official NWS values.
T = Trace of Precipitation, MM = Missing Value Source: NWS Daily Summary

Daily Weather History Graph

Daily Weather History Graph

Search for Another Location

Airport:

Trip Planner

Search our weather history database for the weather conditions in past years. The results will help you decide how hot, cold, wet, or windy it might be!

Date:

Astronomy

Mar. 16, 2014 Rise Set
Actual Time 7:28 AM MDT 7:26 PM MDT
Civil Twilight 7:00 AM MDT 7:54 PM MDT
Nautical Twilight 6:27 AM MDT 8:28 PM MDT
Astronomical Twilight 5:53 AM MDT 9:02 PM MDT
Moon 7:48 PM MDT (3/16) 7:13 AM MDT (3/16)
Length of Visible Light 12h 54m
Length of Day
11h 57m
Full, 100% of the Moon is Illuminated
Mar 16
Full
Mar 23
Last Quarter
Mar 30
New
Apr 7
First Quarter
Apr 15
Full

Hourly Weather History & Observations

Time (MDT) Temp. Windchill Dew Point Humidity Pressure Visibility Wind Dir Wind Speed Gust Speed Precip Events Conditions
12:15 AM 32.0 °F 19.5 °F 10.4 °F 41% 30.32 in 10.0 mi NW 21.9 mph 27.6 mph N/A   Clear
12:35 AM 30.2 °F 17.4 °F 12.2 °F 47% 30.32 in 10.0 mi WNW 20.7 mph 29.9 mph N/A   Clear
12:55 AM 32.0 °F 19.5 °F 12.2 °F 44% 30.32 in 10.0 mi WNW 21.9 mph 31.1 mph N/A   Clear
1:15 AM 32.0 °F 19.8 °F 10.4 °F 41% 30.31 in 10.0 mi WNW 20.7 mph 26.5 mph N/A   Clear
1:35 AM 32.0 °F 19.8 °F 12.2 °F 44% 30.30 in 10.0 mi WNW 20.7 mph 28.8 mph N/A   Clear
1:55 AM 32.0 °F 20.1 °F 12.2 °F 44% 30.29 in 10.0 mi WNW 19.6 mph 28.8 mph N/A   Clear
2:15 AM 32.0 °F 19.5 °F 12.2 °F 44% 30.30 in 10.0 mi WNW 21.9 mph 27.6 mph N/A   Clear
2:35 AM 32.0 °F 20.1 °F 12.2 °F 44% 30.30 in 10.0 mi WNW 19.6 mph 25.3 mph N/A   Clear
2:55 AM 32.0 °F 19.8 °F 12.2 °F 44% 30.30 in 10.0 mi WNW 20.7 mph 28.8 mph N/A   Clear
3:15 AM 30.2 °F 21.3 °F 14.0 °F 51% 30.31 in 10.0 mi NW 10.4 mph 17.3 mph N/A   Clear
3:35 AM 32.0 °F 22.1 °F 14.0 °F 48% 30.31 in 10.0 mi WNW 13.8 mph 26.5 mph N/A   Clear
3:55 AM 32.0 °F 20.1 °F 14.0 °F 48% 30.29 in 10.0 mi WNW 19.6 mph 25.3 mph N/A   Clear
4:15 AM 32.0 °F 20.8 °F 14.0 °F 48% 30.30 in 10.0 mi NW 17.3 mph - N/A   Clear
4:35 AM 32.0 °F 23.6 °F 14.0 °F 48% 30.31 in 10.0 mi NNW 10.4 mph - N/A   Clear
4:55 AM 28.4 °F 21.2 °F 14.0 °F 55% 30.31 in 10.0 mi NNW 6.9 mph - N/A   Clear
5:15 AM 28.4 °F 20.4 °F 14.0 °F 55% 30.28 in 10.0 mi North 8.1 mph - N/A   Clear
5:35 AM 30.2 °F 21.3 °F 14.0 °F 51% 30.28 in 10.0 mi North 10.4 mph 16.1 mph N/A   Clear
6:15 AM 32.0 °F 19.5 °F 12.2 °F 44% 30.26 in 10.0 mi NW 21.9 mph 34.5 mph N/A   Clear
6:35 AM 32.0 °F 18.1 °F 12.2 °F 44% 30.25 in 10.0 mi WNW 27.6 mph 33.4 mph N/A   Clear
6:55 AM 32.0 °F 18.9 °F 12.2 °F 44% 30.26 in 10.0 mi NW 24.2 mph 31.1 mph N/A   Clear
7:15 AM 30.2 °F 19.3 °F 14.0 °F 51% 30.26 in 10.0 mi NW 15.0 mph 21.9 mph N/A   Clear
7:35 AM 30.2 °F 21.3 °F 14.0 °F 51% 30.25 in 10.0 mi NNW 10.4 mph - N/A   Clear
7:55 AM 32.0 °F 23.0 °F 14.0 °F 48% 30.24 in 10.0 mi NNW 11.5 mph 18.4 mph N/A   Clear
8:15 AM 32.0 °F 20.8 °F 14.0 °F 48% 30.24 in 10.0 mi NW 17.3 mph 23.0 mph N/A   Clear
8:35 AM 32.0 °F 20.5 °F 14.0 °F 48% 30.24 in 10.0 mi NNW 18.4 mph 23.0 mph N/A   Clear
8:55 AM 33.8 °F 23.2 °F 14.0 °F 44% 30.24 in 10.0 mi NNW 17.3 mph 23.0 mph N/A   Clear
9:15 AM 35.6 °F 25.2 °F 14.0 °F 41% 30.24 in 10.0 mi NW 18.4 mph 26.5 mph N/A   Clear
9:35 AM 35.6 °F 23.2 °F 14.0 °F 41% 30.23 in 10.0 mi NW 26.5 mph 33.4 mph N/A   Clear
9:55 AM 37.4 °F 28.2 °F 14.0 °F 38% 30.23 in 10.0 mi NW 16.1 mph 23.0 mph N/A   Clear
10:15 AM 39.2 °F 29.8 °F 14.0 °F 36% 30.22 in 10.0 mi NW 18.4 mph 29.9 mph N/A   Clear
10:35 AM 41.0 °F 31.6 °F 14.0 °F 33% 30.23 in 10.0 mi WNW 20.7 mph 32.2 mph N/A   Clear
10:55 AM 42.8 °F 35.1 °F 14.0 °F 31% 30.23 in 10.0 mi WNW 16.1 mph 21.9 mph N/A   Clear
11:15 AM 42.8 °F 32.5 °F 14.0 °F 31% 30.21 in 10.0 mi WNW 28.8 mph 39.1 mph N/A   Clear
11:35 AM 42.8 °F 31.9 °F 15.8 °F 34% 30.20 in 10.0 mi WNW 32.2 mph 43.7 mph N/A   Clear
11:55 AM 42.8 °F 31.9 °F 15.8 °F 34% 30.20 in 10.0 mi WNW 32.2 mph 47.2 mph N/A   Clear
12:15 PM 42.8 °F 33.1 °F 17.6 °F 36% 30.19 in 10.0 mi NW 25.3 mph 40.3 mph N/A   Clear
12:55 PM 46.4 °F 37.7 °F 17.6 °F 32% 30.16 in 10.0 mi WNW 26.5 mph 39.1 mph N/A   Clear
1:10 PM 44.6 °F 35.1 °F 17.6 °F 34% 30.15 in 10.0 mi WNW 27.6 mph 47.2 mph N/A   Clear
1:35 PM 46.4 °F 36.4 °F 17.6 °F 32% 30.13 in 10.0 mi WNW 35.7 mph 43.7 mph N/A   Clear
1:55 PM 46.4 °F 37.0 °F 17.6 °F 32% 30.11 in 10.0 mi NW 31.1 mph 42.6 mph N/A   Clear
2:15 PM 46.4 °F 36.1 °F 15.8 °F 29% 30.11 in 10.0 mi NW 38.0 mph 47.2 mph N/A   Clear
2:35 PM 44.6 °F 34.6 °F 15.8 °F 31% 30.10 in 10.0 mi NW 31.1 mph 41.4 mph N/A   Clear
2:55 PM 44.6 °F 34.6 °F 14.0 °F 29% 30.10 in 10.0 mi NW 31.1 mph 42.6 mph N/A   Clear
3:15 PM 44.6 °F 34.7 °F 15.8 °F 31% 30.09 in 10.0 mi WNW 29.9 mph 41.4 mph N/A   Clear
3:30 PM 44.6 °F 35.3 °F 17.6 °F 34% 30.09 in 10.0 mi WNW 26.5 mph 40.3 mph N/A   Clear
3:55 PM 44.6 °F 34.1 °F 15.8 °F 31% 30.09 in 10.0 mi WNW 34.5 mph 41.4 mph N/A   Clear
4:15 PM 46.4 °F 37.7 °F 14.0 °F 27% 30.08 in 10.0 mi WNW 26.5 mph 38.0 mph N/A   Clear
4:35 PM 46.4 °F 36.7 °F 12.2 °F 25% 30.08 in 10.0 mi WNW 33.4 mph 42.6 mph N/A   Clear
4:55 PM 46.4 °F 38.1 °F 12.2 °F 25% 30.08 in 10.0 mi NW 24.2 mph 33.4 mph N/A   Clear
5:15 PM 44.6 °F 35.9 °F 14.0 °F 29% 30.07 in 10.0 mi NW 23.0 mph 31.1 mph N/A   Clear
5:35 PM 46.4 °F 39.2 °F 14.0 °F 27% 30.07 in 10.0 mi NW 18.4 mph 38.0 mph N/A   Clear
5:55 PM 44.6 °F 36.1 °F 15.8 °F 31% 30.06 in 10.0 mi WNW 21.9 mph 36.8 mph N/A   Clear
6:15 PM 44.6 °F 37.4 °F 17.6 °F 34% 30.06 in 10.0 mi NW 16.1 mph 28.8 mph N/A   Clear
6:35 PM 42.8 °F 32.9 °F 17.6 °F 36% 30.05 in 10.0 mi WNW 26.5 mph 33.4 mph N/A   Clear
6:55 PM 41.0 °F 30.7 °F 17.6 °F 39% 30.04 in 10.0 mi WNW 25.3 mph 33.4 mph N/A   Clear
7:15 PM 41.0 °F 32.2 °F 19.4 °F 42% 30.04 in 10.0 mi NW 18.4 mph 32.2 mph N/A   Clear
7:35 PM 39.2 °F 28.7 °F 17.6 °F 42% 30.04 in 10.0 mi WNW 23.0 mph 32.2 mph N/A   Clear
7:55 PM 37.4 °F 27.2 °F 19.4 °F 48% 30.03 in 10.0 mi West 19.6 mph 26.5 mph N/A   Clear
8:15 PM 37.4 °F 26.6 °F 19.4 °F 48% 30.02 in 10.0 mi WNW 21.9 mph 31.1 mph N/A   Clear
8:35 PM 37.4 °F 28.9 °F 17.6 °F 45% 30.02 in 10.0 mi NW 13.8 mph 27.6 mph N/A   Clear
8:55 PM 37.4 °F 27.8 °F 17.6 °F 45% 30.02 in 10.0 mi NW 17.3 mph 20.7 mph N/A   Clear
9:15 PM 37.4 °F 27.2 °F 17.6 °F 45% 30.00 in 10.0 mi NW 19.6 mph - N/A   Clear
9:35 PM 37.4 °F 27.5 °F 17.6 °F 45% 30.00 in 10.0 mi NW 18.4 mph 27.6 mph N/A   Clear
9:55 PM 35.6 °F 26.6 °F 19.4 °F 52% 30.00 in 10.0 mi NW 13.8 mph 21.9 mph N/A   Clear
10:15 PM 35.6 °F 26.2 °F 17.6 °F 48% 29.98 in 10.0 mi NW 15.0 mph - N/A   Clear
10:40 PM 33.8 °F 26.4 °F 19.4 °F 56% 29.97 in 10.0 mi NW 9.2 mph 16.1 mph N/A   Clear
10:55 PM 37.4 °F 26.6 °F 17.6 °F 45% 29.96 in 10.0 mi West 21.9 mph 27.6 mph N/A   Clear
11:15 PM 37.4 °F 26.6 °F 17.6 °F 45% 29.94 in 10.0 mi WNW 21.9 mph 26.5 mph N/A   Clear
11:35 PM 37.4 °F 29.3 °F 19.4 °F 48% 29.94 in 10.0 mi NW 12.7 mph 18.4 mph N/A   Clear
11:55 PM 37.4 °F 28.9 °F 19.4 °F 48% 29.92 in 10.0 mi NW 13.8 mph 20.7 mph N/A   Clear